Weather History for Fitchburg, MA

Change the Weather History Date:

Wednesday, March 20, 2013

  Actual Average (KORH) Record (KORH)
Temperature  
Mean Temperature 28 °F 36 °F  
Max Temperature 37 °F 44 °F 77 °F (1945)
Min Temperature 18 °F 28 °F 2 °F (1949)
Degree Days  
Heating Degree Days 37 29  
Month to date heating degree days 642  
Since 1 July heating degree days 5479  
Cooling Degree Days 0 0  
Month to date cooling degree days 0  
Year to date cooling degree days 0  
Moisture  
Dew Point 18 °F    
Average Humidity 63    
Maximum Humidity 92    
Minimum Humidity 41    
Precipitation  
Precipitation 0.00 in 0.14 in 1.17 in (1954)
Month to date precipitation 2.59  
Year to date precipitation 9.31  
Sea Level Pressure  
Sea Level Pressure 29.76 in    
Wind  
Wind Speed 8 mph (West)    
Max Wind Speed 17 mph    
Max Gust Speed 25 mph    
Visibility 10 miles    
Events      
T = Trace of Precipitation, MM = Missing Value Source: NWS Daily Summary

Daily Weather History Graph

Daily Weather History Graph

Search for Another Location

Airport:

Trip Planner

Search our weather history database for the weather conditions in past years. The results will help you decide how hot, cold, wet, or windy it might be!

Date:

Astronomy

Mar. 20, 2013 Rise Set
Actual Time 6:49 AM EDT 6:59 PM EDT
Civil Twilight 6:21 AM EDT 7:27 PM EDT
Nautical Twilight 5:48 AM EDT 8:00 PM EDT
Astronomical Twilight 5:15 AM EDT 8:34 PM EDT
Moon 12:25 PM EDT 2:34 AM EDT
Length of Visible Light 13h 05m
Length of Day
12h 09m
First Quarter, 59% of the Moon is Illuminated
Mar 20
First Quarter
Mar 27
Full
Apr 3
Last Quarter
Apr 10
New
Apr 18
First Quarter

Hourly Weather History & Observations

Time (EDT) Temp. Windchill Dew Point Humidity Pressure Visibility Wind Dir Wind Speed Gust Speed Precip Events Conditions
12:52 AM 28.0 °F 24.2 °F 23.0 °F 81% 29.73 in 10.0 mi NNW 3.5 mph - N/A   Overcast
1:52 AM 27.0 °F 19.5 °F 21.0 °F 78% 29.73 in 10.0 mi NW 6.9 mph - N/A   Overcast
2:52 AM 21.0 °F - 18.0 °F 88% 29.73 in 10.0 mi Calm Calm - N/A   Clear
3:52 AM 19.0 °F - 17.1 °F 92% 29.73 in 10.0 mi Calm Calm - N/A   Scattered Clouds
4:52 AM 26.1 °F 16.8 °F 18.0 °F 71% 29.73 in 10.0 mi WNW 9.2 mph - N/A   Mostly Cloudy
5:52 AM 24.1 °F 15.2 °F 17.1 °F 75% 29.75 in 10.0 mi West 8.1 mph - N/A   Clear
6:52 AM 25.0 °F 17.1 °F 17.1 °F 72% 29.76 in 10.0 mi Variable 6.9 mph - N/A   Partly Cloudy
7:52 AM 26.1 °F 15.6 °F 17.1 °F 69% 29.76 in 10.0 mi West 11.5 mph - N/A   Clear
8:52 AM 28.0 °F 16.5 °F 18.0 °F 66% 29.75 in 10.0 mi West 15.0 mph 21.9 mph N/A   Clear
9:52 AM 30.0 °F 18.3 °F 18.0 °F 61% 29.76 in 10.0 mi WNW 17.3 mph 25.3 mph N/A   Scattered Clouds
10:52 AM 30.9 °F 22.2 °F 19.0 °F 61% 29.76 in 10.0 mi West 10.4 mph 17.3 mph N/A   Mostly Cloudy
11:52 AM 32.0 °F 20.8 °F 18.0 °F 56% 29.76 in 10.0 mi West 17.3 mph 25.3 mph N/A   Overcast
12:52 PM 34.0 °F 24.2 °F 18.0 °F 52% 29.76 in 10.0 mi West 15.0 mph 25.3 mph N/A   Overcast
1:52 PM 36.0 °F 27.1 °F 17.1 °F 46% 29.75 in 10.0 mi West 13.8 mph 25.3 mph N/A   Mostly Cloudy
2:52 PM 36.0 °F 26.7 °F 18.0 °F 48% 29.75 in 10.0 mi West 15.0 mph 23.0 mph N/A   Mostly Cloudy
3:52 PM 36.0 °F 26.3 °F 17.1 °F 46% 29.74 in 10.0 mi West 16.1 mph 25.3 mph N/A   Mostly Cloudy
4:52 PM 37.0 °F 27.7 °F 15.1 °F 41% 29.75 in 10.0 mi West 16.1 mph 21.9 mph N/A   Partly Cloudy
5:52 PM 36.0 °F 28.5 °F 17.1 °F 46% 29.76 in 10.0 mi WNW 10.4 mph - N/A   Overcast
6:52 PM 35.1 °F 28.6 °F 16.0 °F 46% 29.78 in 10.0 mi WSW 8.1 mph 18.4 mph N/A   Clear
7:52 PM 34.0 °F 27.2 °F 16.0 °F 48% 29.78 in 10.0 mi WSW 8.1 mph - N/A   Clear
8:52 PM 32.0 °F 27.5 °F 16.0 °F 52% 29.79 in 10.0 mi WSW 4.6 mph - N/A   Clear
9:52 PM 27.0 °F - 17.1 °F 66% 29.81 in 10.0 mi Calm Calm - N/A   Clear
10:52 PM 23.0 °F - 16.0 °F 74% 29.82 in 10.0 mi Calm Calm - N/A   Clear
11:52 PM 18.0 °F 11.1 °F 15.1 °F 88% 29.82 in 10.0 mi NW 4.6 mph - N/A   Clear